| time (UTC) | temp F | wind direction | speed knots | gust knots | rain 1hr in | rain 24hr in | rain mn in | humidity % | barometer mb |
| 20260502195637 | 75 | 140 | 5.2 | 0.0 | 0.00 | 0.00 | 0.00 | 38 | 1012.0 |
| 20260502194636 | 75 | 140 | 5.2 | 0.0 | 0.00 | 0.00 | 0.00 | 38 | 1012.0 |
| 20260502193635 | 76 | 140 | 5.2 | 0.0 | 0.00 | 0.00 | 0.00 | 36 | 1012.0 |
| 20260502192635 | 76 | 140 | 5.2 | 0.0 | 0.00 | 0.00 | 0.00 | 36 | 1013.0 |
| 20260502191634 | 76 | 140 | 5.2 | 0.0 | 0.00 | 0.00 | 0.00 | 35 | 1013.0 |
| 20260502190633 | 76 | 140 | 5.2 | 0.0 | 0.00 | 0.00 | 0.00 | 35 | 1013.0 |
| 20260502185633 | 77 | 360 | 7.8 | 0.0 | 0.00 | 0.00 | 0.00 | 35 | 1013.0 |
| 20260502184632 | 77 | 360 | 7.8 | 0.0 | 0.00 | 0.00 | 0.00 | 35 | 1013.0 |
| 20260502183631 | 76 | 360 | 7.8 | 0.0 | 0.00 | 0.00 | 0.00 | 35 | 1013.0 |
| 20260502182631 | 76 | 360 | 7.8 | 0.0 | 0.00 | 0.00 | 0.00 | 34 | 1014.0 |
| 20260502181630 | 76 | 360 | 7.8 | 0.0 | 0.00 | 0.00 | 0.00 | 33 | 1014.0 |
| 20260502180629 | 76 | 360 | 7.8 | 0.0 | 0.00 | 0.00 | 0.00 | 33 | 1014.0 |
| 20260502163623 | 70 | 306 | 2.6 | 2.6 | 0.00 | 0.00 | 0.00 | 45 | 1015.0 |
| 20260502162622 | 70 | 306 | 2.6 | 2.6 | 0.00 | 0.00 | 0.00 | 45 | 1016.0 |
| 20260502161622 | 69 | 246 | 4.3 | 4.3 | 0.00 | 0.00 | 0.00 | 44 | 1016.0 |
| 20260502160621 | 69 | 246 | 4.3 | 4.3 | 0.00 | 0.00 | 0.00 | 44 | 1016.0 |
| 20260502151618 | 64 | 0 | 0.0 | 0.0 | 0.00 | 0.00 | 0.00 | 60 | 1016.0 |
| 20260502150617 | 58 | 0 | 0.0 | 0.0 | 0.00 | 0.00 | 0.00 | 63 | 1016.0 |
| 20260502130609 | 52 | 194 | 0.9 | 0.9 | 0.00 | 0.00 | 0.00 | 79 | 1017.0 |
| 20260502123607 | 48 | 198 | 0.9 | 0.9 | 0.00 | 0.00 | 0.00 | 88 | 1017.0 |
| 20260502122606 | 48 | 198 | 0.9 | 0.9 | 0.00 | 0.00 | 0.00 | 90 | 1017.0 |
| 20260502121605 | 49 | 198 | 0.9 | 0.9 | 0.00 | 0.00 | 0.00 | 89 | 1017.0 |
| 20260502120605 | 49 | 198 | 0.9 | 0.9 | 0.00 | 0.00 | 0.00 | 88 | 1017.0 |
| 20260502115604 | 49 | 198 | 2.6 | 2.6 | 0.00 | 0.00 | 0.00 | 86 | 1017.0 |
| 20260502114604 | 49 | 198 | 2.6 | 2.6 | 0.00 | 0.00 | 0.00 | 86 | 1017.0 |
| 20260502113603 | 47 | 226 | 1.7 | 3.5 | 0.00 | 0.00 | 0.00 | 88 | 1017.0 |
| 20260502112602 | 47 | 215 | 2.6 | 3.5 | 0.00 | 0.00 | 0.00 | 88 | 1016.0 |
| 20260502111602 | 50 | 215 | 2.6 | 3.5 | 0.00 | 0.00 | 0.00 | 86 | 1016.0 |
| 20260502110601 | 50 | 215 | 2.6 | 3.5 | 0.00 | 0.00 | 0.00 | 85 | 1016.0 |
| 20260502105600 | 50 | 198 | 2.6 | 2.6 | 0.00 | 0.00 | 0.00 | 83 | 1017.0 |
| 20260502104600 | 50 | 198 | 2.6 | 2.6 | 0.00 | 0.00 | 0.00 | 83 | 1017.0 |
| 20260502103559 | 50 | 198 | 0.9 | 0.9 | 0.00 | 0.00 | 0.00 | 82 | 1017.0 |
| 20260502102558 | 50 | 198 | 0.9 | 0.9 | 0.00 | 0.00 | 0.00 | 83 | 1016.0 |
| 20260502101557 | 51 | 218 | 2.6 | 3.5 | 0.00 | 0.00 | 0.00 | 86 | 1016.0 |
| 20260502100557 | 51 | 218 | 2.6 | 3.5 | 0.00 | 0.00 | 0.00 | 86 | 1016.0 |
| 20260502090552 | 52 | 219 | 3.5 | 3.5 | 0.00 | 0.00 | 0.00 | 86 | 1016.0 |
| 20260502070544 | 53 | 312 | 0.9 | 0.9 | 0.00 | 0.00 | 0.00 | 91 | 1017.0 |
| 20260502065544 | 54 | 312 | 0.9 | 0.9 | 0.00 | 0.00 | 0.00 | 93 | 1017.0 |
| 20260502064543 | 54 | 312 | 0.9 | 0.9 | 0.00 | 0.00 | 0.00 | 93 | 1017.0 |
| 20260502063542 | 54 | 212 | 3.5 | 2.6 | 0.00 | 0.00 | 0.00 | 93 | 1017.0 |
| 20260502062541 | 54 | 219 | 2.6 | 2.6 | 0.00 | 0.00 | 0.00 | 93 | 1017.0 |
| 20260502061541 | 54 | 219 | 2.6 | 2.6 | 0.00 | 0.00 | 0.00 | 92 | 1017.0 |
| 20260502060540 | 54 | 219 | 2.6 | 2.6 | 0.00 | 0.00 | 0.00 | 92 | 1017.0 |
| 20260502055540 | 55 | 312 | 2.6 | 2.6 | 0.00 | 0.00 | 0.00 | 92 | 1017.0 |
| 20260502054539 | 55 | 219 | 2.6 | 2.6 | 0.00 | 0.00 | 0.00 | 91 | 1017.0 |
| 20260502053538 | 55 | 219 | 2.6 | 2.6 | 0.00 | 0.00 | 0.00 | 91 | 1017.0 |
| 20260502052538 | 55 | 226 | 1.7 | 2.6 | 0.00 | 0.00 | 0.00 | 91 | 1017.0 |
| 20260502051537 | 56 | 312 | 0.9 | 0.9 | 0.00 | 0.00 | 0.00 | 90 | 1017.0 |
| 20260502050536 | 56 | 312 | 0.9 | 0.9 | 0.00 | 0.00 | 0.00 | 89 | 1017.0 |
| 20260502045536 | 57 | 318 | 0.9 | 0.9 | 0.00 | 0.00 | 0.00 | 87 | 1017.0 |
| 20260502044535 | 57 | 318 | 0.9 | 0.9 | 0.00 | 0.00 | 0.00 | 87 | 1017.0 |
| 20260502043531 | 58 | 282 | 0.9 | 0.9 | 0.00 | 0.00 | 0.00 | 86 | 1017.0 |
| 20260502042530 | 58 | 282 | 0.9 | 0.9 | 0.00 | 0.00 | 0.00 | 86 | 1017.0 |
| 20260502041530 | 58 | 227 | 1.7 | 1.7 | 0.00 | 0.00 | 0.00 | 87 | 1017.0 |
| 20260502040529 | 58 | 227 | 1.7 | 1.7 | 0.00 | 0.00 | 0.00 | 87 | 1017.0 |
| 20260502035528 | 58 | 198 | 0.9 | 0.9 | 0.00 | 0.00 | 0.00 | 86 | 1017.0 |
| 20260502034528 | 58 | 198 | 0.9 | 0.9 | 0.00 | 0.00 | 0.00 | 86 | 1017.0 |
| 20260502033527 | 59 | 227 | 1.7 | 1.7 | 0.00 | 0.00 | 0.00 | 84 | 1017.0 |
| 20260502032526 | 59 | 235 | 1.7 | 1.7 | 0.00 | 0.00 | 0.00 | 83 | 1016.0 |
| 20260502031525 | 59 | 168 | 0.9 | 0.9 | 0.00 | 0.00 | 0.00 | 79 | 1016.0 |
| 20260502030525 | 59 | 168 | 0.9 | 0.9 | 0.00 | 0.00 | 0.00 | 79 | 1016.0 |
| 20260502025524 | 60 | 144 | 0.9 | 0.9 | 0.00 | 0.00 | 0.00 | 77 | 1016.0 |
| 20260502024523 | 60 | 144 | 0.9 | 0.9 | 0.00 | 0.00 | 0.00 | 77 | 1016.0 |
| 20260502023523 | 60 | 144 | 0.9 | 0.9 | 0.00 | 0.00 | 0.00 | 76 | 1016.0 |
| 20260502022522 | 60 | 144 | 0.9 | 0.9 | 0.00 | 0.00 | 0.00 | 76 | 1015.0 |
| 20260502021521 | 60 | 126 | 3.5 | 3.5 | 0.00 | 0.00 | 0.00 | 76 | 1015.0 |
| 20260502020521 | 60 | 126 | 3.5 | 3.5 | 0.00 | 0.00 | 0.00 | 76 | 1015.0 |
| 20260502015520 | 60 | 156 | 0.9 | 0.9 | 0.00 | 0.00 | 0.00 | 76 | 1015.0 |
| 20260502014519 | 60 | 156 | 0.9 | 0.9 | 0.00 | 0.00 | 0.00 | 76 | 1015.0 |
| 20260502013519 | 61 | 102 | 0.9 | 0.9 | 0.00 | 0.00 | 0.00 | 76 | 1015.0 |
| 20260502012518 | 61 | 102 | 0.9 | 0.9 | 0.00 | 0.00 | 0.00 | 76 | 1014.0 |
| 20260502011517 | 61 | 162 | 0.9 | 0.9 | 0.00 | 0.00 | 0.00 | 75 | 1014.0 |
| 20260502010516 | 61 | 162 | 0.9 | 0.9 | 0.00 | 0.00 | 0.00 | 75 | 1014.0 |
| 20260502005516 | 62 | 96 | 4.3 | 4.3 | 0.00 | 0.00 | 0.00 | 74 | 1014.0 |
| 20260502004515 | 62 | 96 | 4.3 | 4.3 | 0.00 | 0.00 | 0.00 | 73 | 1014.0 |
| 20260502003515 | 64 | 114 | 4.3 | 4.3 | 0.00 | 0.00 | 0.00 | 70 | 1014.0 |
| 20260502002514 | 64 | 96 | 3.5 | 3.5 | 0.00 | 0.00 | 0.00 | 67 | 1013.0 |
| 20260502001513 | 64 | 96 | 3.5 | 3.5 | 0.00 | 0.00 | 0.00 | 67 | 1013.0 |
| 20260502000512 | 64 | 96 | 3.5 | 3.5 | 0.00 | 0.00 | 0.00 | 67 | 1013.0 |
| 20260501235512 | 65 | 140 | 5.2 | 0.0 | 0.00 | 0.00 | 0.00 | 67 | 1013.0 |
| 20260501234511 | 65 | 140 | 5.2 | 0.0 | 0.00 | 0.00 | 0.00 | 67 | 1013.0 |
| 20260501233510 | 66 | 140 | 5.2 | 0.0 | 0.00 | 0.00 | 0.00 | 64 | 1013.0 |
| 20260501232510 | 66 | 140 | 5.2 | 0.0 | 0.00 | 0.00 | 0.00 | 64 | 1012.0 |
| 20260501231509 | 67 | 140 | 5.2 | 0.0 | 0.00 | 0.00 | 0.00 | 62 | 1012.0 |
| 20260501230509 | 67 | 140 | 5.2 | 0.0 | 0.00 | 0.00 | 0.00 | 62 | 1012.0 |
| 20260501225508 | 67 | 132 | 6.1 | 6.1 | 0.00 | 0.00 | 0.00 | 62 | 1012.0 |
| 20260501224507 | 67 | 132 | 6.1 | 6.1 | 0.00 | 0.00 | 0.00 | 60 | 1012.0 |
| 20260501223506 | 70 | 0 | 0.0 | 0.0 | 0.00 | 0.00 | 0.00 | 53 | 1012.0 |
| 20260501222506 | 70 | 0 | 0.0 | 0.0 | 0.00 | 0.00 | 0.00 | 53 | 1012.0 |
| 20260501221505 | 70 | 0 | 0.0 | 0.0 | 0.00 | 0.00 | 0.00 | 53 | 1012.0 |
| 20260501220504 | 74 | 140 | 5.2 | 0.0 | 0.00 | 0.00 | 0.00 | 43 | 1012.0 |
| 20260501215504 | 74 | 140 | 5.2 | 0.0 | 0.00 | 0.00 | 0.00 | 43 | 1012.0 |
| 20260501214504 | 74 | 140 | 5.2 | 0.0 | 0.00 | 0.00 | 0.00 | 43 | 1012.0 |
| 20260501213503 | 74 | 140 | 5.2 | 0.0 | 0.00 | 0.00 | 0.00 | 43 | 1012.0 |
| 20260501212502 | 74 | 140 | 5.2 | 0.0 | 0.00 | 0.00 | 0.00 | 43 | 1012.0 |
| 20260501211501 | 74 | 140 | 5.2 | 0.0 | 0.00 | 0.00 | 0.00 | 43 | 1012.0 |
| 20260501210501 | 74 | 140 | 5.2 | 0.0 | 0.00 | 0.00 | 0.00 | 43 | 1012.0 |
| 20260501205500 | 72 | 0 | 0.0 | 0.0 | 0.00 | 0.00 | 0.00 | 46 | 1012.0 |
| 20260501204500 | 72 | 0 | 0.0 | 0.0 | 0.00 | 0.00 | 0.00 | 46 | 1012.0 |
| 20260501203459 | 72 | 168 | 0.9 | 0.9 | 0.00 | 0.00 | 0.00 | 49 | 1012.0 |
| 20260501202458 | 72 | 168 | 0.9 | 0.9 | 0.00 | 0.00 | 0.00 | 49 | 1013.0 |
| 20260501201457 | 72 | 0 | 0.0 | 0.0 | 0.00 | 0.00 | 0.00 | 46 | 1013.0 |
| 20260501200457 | 72 | 0 | 0.0 | 0.0 | 0.00 | 0.00 | 0.00 | 46 | 1013.0 |